Back to catalog

DELTA 1 DEB

AliveSSO
NORAD 21471·DEBRIS·🇺🇸 United States

Launched Jun 12, 1975 from Vandenberg Space Force Base

Loading…

Next Passes (next 24 hours)

TLE

FreshSource: Space-Track

Epoch: Sep 14, 2026, 10:03 UTC

1 21471U 75052FF  26257.41909193  .00000304  00000-0  39602-3 0  9992
2 21471  99.9646  55.5409 0249231 128.1226 261.2305 13.57751167748563

Track DELTA 1 DEB in real time with AllMySat

Download on the App Store